Location: Banios
(43.0451°N, 0.2335°E)
Time: 12:26:52
(UTC+00:00)

CZ-2C R/B - Pass Details

Date: 25 January 2021
Orbit: 390 x 584 km, 35.0° (Epoch: 25 February)

Event Time Altitude Azimuth Distance (km) Brightness Sun altitude
Exits shadow 04:34:52 19° 136° (SE) 1,339 3.6 -30.3°
Drops below altitude 10° 04:36:34 10° 117° (ESE) 1,806 4.7 -29.9°
Sets 04:39:02 0° 104° (ESE) 2,664 5.9 -29.5°
